Overview Statistics Trail Chart Weather Telemetry Raw packets
 

This is the latest recevied weather packets stored in our database for station/object OK4PZ-5. If no packets are shown the sender has not sent any weather packets the latest 10 day(s).

<< 25 26 27 28 29 30 31 >>
Time Temp. Humidity Pressure Rain* Wind** Luminosity Snow
1788009303 23.89° C 48% 1019 hPa 0 mm - - -
1788008402 23.89° C 47% 1019 hPa 0 mm - - -
1788007502 24.44° C 49% 1019 hPa 0 mm - - -
1788006602 23.89° C 50% 1019 hPa 0 mm - - -
1788005702 22.22° C 56% 1019 hPa 0 mm - - -
1788004802 22.78° C 56% 1019 hPa 0 mm - - -
1788003903 23.33° C 56% 1019 hPa 0 mm - - -
1788003002 23.33° C 55% 1019 hPa 0 mm - - -
1788002102 23.33° C 58% 1019 hPa 0 mm - - -
1788001202 22.78° C 58% 1019 hPa 0 mm - - -
1788000302 22.78° C 59% 1019 hPa 0 mm - - -
1787999403 21.67° C 63% 1020 hPa 0 mm - - -
1787998502 21.67° C 64% 1020 hPa 0 mm - - -
1787997602 21.11° C 65% 1019 hPa 0 mm - - -
1787996702 21.67° C 63% 1020 hPa 0 mm - - -
1787995802 20.56° C 67% 1020 hPa 0 mm - - -
1787994902 20° C 69% 1020 hPa 0 mm - - -
1787993102 20° C 70% 1020 hPa 0 mm - - -
1787992202 20° C 69% 1020 hPa 0 mm - - -
1787991302 20° C 71% 1020 hPa 0 mm - - -
1787990402 19.44° C 75% 1020 hPa 0 mm - - -
1787989502 18.89° C 76% 1020 hPa 0 mm - - -
1787988603 18.89° C 80% 1020 hPa 0 mm - - -
1787987702 18.89° C 84% 1019 hPa 0 mm - - -
1787986802 17.78° C 84% 1019 hPa 0 mm - - -

* Rain latest hour (hover to see other rain measurements)
** Current wind speed in m/s (hover to see current wind gust speed)